CAPE
0 0 0 0 0 1 1 1 1 1 1 0 nan nan nan nan nan nan nan nan nan nan nan 1 1 nan nan nan nan nan nan nan nan nan nan nan nan nan nan nan nan nan nan nan nan nan nan nan nan nan nan 1 11 11 15 20 20 18 24 18 18 10 1 nan nan nan nan nan nan nan nan nan nan nan nan nan nan nan nan nan nan nan 0 3 3 8
0 0 0 2 2 2 3 1 1 1 1 2 1 1 nan nan nan nan nan 0 0 0 nan nan nan 0 nan nan nan nan nan nan nan nan nan nan nan nan nan nan nan nan nan nan nan nan nan nan nan nan nan nan 0 0 9 8 8 14 14 8 8 7 1 nan nan nan nan nan nan nan nan nan nan nan nan nan nan nan nan 0 0 0 1 5 5 10
13 8 6 6 6 4 5 5 3 3 2 3 4 4 2 0 nan nan 0 0 0 0 nan 0 0 nan nan nan nan nan 0 1 0 0 nan nan nan nan nan nan nan nan nan nan nan nan nan nan nan nan nan nan nan nan nan nan nan nan nan nan nan nan nan nan nan nan nan nan nan nan nan nan nan nan nan nan nan nan nan 0 0 1 1 6 6 13
13 10 10 9 9 8 7 8 6 6 4 4 5 5 4 2 0 0 0 2 2 2 1 0 0 nan nan nan nan nan nan nan 0 0 1 0 nan nan nan nan nan nan nan nan nan nan nan nan nan nan nan nan nan nan nan nan nan nan nan nan nan nan nan nan nan nan nan nan nan nan nan nan nan nan nan nan nan nan nan 1 1 1 6 9 9 15
10 11 11 10 10 8 10 12 8 8 6 4 4 4 4 4 2 2 2 2 2 2 1 3 3 0 nan nan nan nan nan nan nan nan 0 1 2 2 0 nan nan nan nan nan nan nan nan nan nan nan nan nan nan nan nan nan nan nan nan nan nan nan nan nan nan nan nan nan nan nan nan nan nan nan nan nan nan nan 0 2 2 5 11 15 15 16
6 10 11 8 8 5 8 5 4 4 5 5 3 3 4 4 3 3 2 2 2 2 2 1 1 1 0 0 nan nan nan nan nan nan nan 0 1 1 2 2 2 nan nan nan nan nan nan nan nan nan nan nan nan nan nan nan nan nan nan nan nan nan nan nan nan nan nan nan nan nan nan nan nan nan nan nan nan nan 2 3 3 5 14 18 18 19
2 10 11 7 7 7 6 2 4 4 3 5 4 4 3 4 4 4 2 2 2 2 2 2 2 2 1 1 0 0 nan nan nan nan 0 0 1 1 1 2 2 2 nan nan nan nan nan nan nan nan nan nan nan nan nan nan nan nan nan nan nan nan nan nan nan nan nan nan nan nan nan nan nan nan nan nan 6 6 11 8 8 9 16 20 20 22
7 7 10 10 10 9 7 8 3 3 2 3 5 5 6 1 nan nan 0 1 1 2 2 1 1 1 1 3 3 3 2 1 0 0 0 0 1 1 1 1 1 1 1 1 1 nan nan nan nan nan nan nan nan nan nan nan nan nan nan nan nan nan nan nan nan nan nan nan nan nan nan nan nan nan nan 0 17 17 35 44 44 37 28 25 25 28
13 8 6 12 12 10 4 7 7 7 2 2 4 4 6 5 3 3 nan nan nan 0 0 0 0 1 3 4 2 2 2 3 1 1 2 1 2 2 4 4 4 3 0 0 0 0 nan nan nan nan nan nan nan nan nan nan nan nan nan nan nan nan nan nan nan nan nan nan nan nan nan nan nan nan nan 1 16 16 31 42 42 48 42 33 33 31
14 13 9 9 9 10 5 3 7 7 2 2 3 3 4 4 5 5 3 0 0 0 nan 0 0 1 3 1 0 0 1 3 5 5 6 nan 3 3 2 2 2 5 1 nan nan nan 0 0 0 nan nan nan nan nan nan nan nan nan nan nan nan nan nan nan nan nan nan nan nan nan nan nan nan nan nan 2 12 12 21 34 34 44 46 40 40 34
8 10 9 8 8 8 8 6 3 3 2 4 4 4 3 3 5 5 3 4 4 3 nan nan nan 1 1 3 0 0 0 1 2 2 6 1 nan nan nan 0 0 0 1 nan nan nan nan nan nan nan nan nan nan nan nan nan nan nan nan nan nan nan nan nan nan nan nan nan nan nan nan nan nan nan nan 4 9 9 16 26 26 33 37 38 38 35
7 8 8 8 8 7 7 6 1 1 2 4 3 3 4 5 5 5 4 4 4 5 5 3 3 1 2 4 1 1 0 0 1 1 3 4 4 4 4 4 4 4 4 1 1 nan nan nan nan nan nan nan nan nan nan nan nan nan nan nan nan nan nan nan nan nan nan nan nan nan nan nan nan nan 1 6 10 10 15 20 20 25 26 24 24 26
4 6 9 9 9 8 8 7 6 6 5 3 3 3 2 7 6 6 5 5 5 5 8 6 6 2 1 2 2 2 0 1 2 2 3 5 6 6 9 7 7 6 8 7 7 3 nan nan nan nan nan nan nan nan nan nan nan nan nan nan nan nan nan nan nan nan nan nan nan nan nan nan nan nan 2 7 10 10 14 18 18 20 18 16 16 16
3 5 7 7 7 7 8 7 7 7 6 5 5 5 5 8 7 7 4 3 3 6 3 0 0 2 2 0 1 1 0 1 1 1 2 4 7 7 5 7 7 9 8 8 8 6 1 nan nan nan nan nan nan nan nan nan nan nan nan nan nan nan nan nan nan nan nan nan nan nan nan nan nan nan 2 6 10 10 9 11 11 13 14 12 12 15
2 4 2 2 2 4 7 9 9 9 9 8 8 8 5 7 5 5 4 3 3 7 3 0 0 1 2 0 0 0 0 0 0 0 1 3 5 5 4 4 4 8 12 10 10 8 5 2 2 1 nan nan nan nan nan nan nan nan nan nan nan nan nan nan nan nan nan nan nan nan nan nan nan nan 0 2 5 5 6 9 9 10 10 11 11 14
1 3 1 2 2 2 4 6 10 10 9 10 9 9 7 6 6 6 4 3 3 6 3 1 1 1 1 nan nan nan 1 1 0 0 1 2 4 4 0 2 2 5 9 10 10 11 9 7 7 5 nan nan nan nan nan nan nan nan nan nan nan nan nan nan nan nan nan nan nan nan nan nan nan nan nan nan nan nan 0 3 3 4 6 9 9 13
nan 0 3 6 6 3 3 6 10 10 12 11 11 11 9 8 7 7 4 6 6 5 3 2 2 1 2 nan 1 1 1 1 1 1 1 2 5 5 nan 0 0 4 7 8 8 10 8 5 5 8 3 nan nan nan nan nan nan nan nan nan nan nan nan nan nan nan nan nan nan nan nan nan nan nan nan nan nan nan nan 0 0 2 4 8 8 12
nan nan 5 5 5 2 2 5 9 9 15 13 13 13 12 13 9 9 6 5 5 4 2 2 2 1 3 5 1 1 2 2 2 2 2 1 5 5 1 0 0 3 4 6 6 8 7 5 5 5 2 nan nan nan nan nan nan nan nan nan nan nan nan nan nan nan nan nan nan nan nan nan nan nan nan nan nan nan nan nan nan 2 6 9 9 13
nan nan nan 0 0 1 2 3 6 6 10 12 15 15 11 11 10 10 6 4 4 3 2 2 2 1 3 5 0 0 2 2 2 2 2 2 4 4 2 1 1 1 2 4 4 7 5 2 2 0 nan nan nan nan nan nan nan nan nan nan nan nan nan nan nan nan nan nan nan nan nan nan nan nan nan nan nan nan nan nan nan 3 10 13 13 15
nan nan nan nan nan nan 0 3 7 7 11 17 20 20 13 12 11 11 7 5 5 3 3 2 2 2 3 6 nan nan 2 3 2 2 2 2 4 4 2 1 1 1 3 4 4 6 0 1 1 nan nan nan nan nan nan nan nan nan nan nan nan nan nan nan nan nan nan nan nan nan nan nan nan nan nan nan nan nan nan nan nan 4 9 12 12 13
nan nan nan nan nan nan nan nan 5 5 14 29 24 24 16 15 9 9 9 7 7 1 2 2 2 2 2 2 nan nan 2 2 2 2 2 2 2 2 0 2 2 2 2 4 4 11 0 1 1 1 nan nan nan nan nan nan nan nan nan nan nan nan nan nan nan nan nan nan nan nan nan nan nan nan nan nan nan nan nan nan nan 2 6 9 9 10
nan nan nan nan nan nan nan nan 0 0 11 38 28 28 23 19 11 11 11 9 9 4 2 2 2 1 4 13 0 0 2 2 1 1 0 1 2 2 1 0 0 2 1 5 5 8 2 0 0 0 1 nan nan nan nan nan nan nan nan nan nan nan nan nan nan nan nan nan nan nan nan nan nan nan nan nan nan nan nan nan nan 0 2 6 6 7
nan nan nan nan nan nan nan 0 0 0 5 20 24 24 28 29 17 17 17 15 15 9 7 1 1 0 nan nan 0 0 2 2 0 0 nan 1 3 3 1 0 0 1 1 4 4 4 2 0 0 nan 0 0 nan nan nan nan nan nan nan nan nan nan nan nan nan nan nan nan nan nan nan nan nan nan nan nan nan nan nan nan nan nan 1 2 2 5
0 nan nan nan nan nan 0 0 1 1 3 11 22 22 39 35 31 31 32 21 21 17 17 13 13 nan nan nan 0 0 1 2 2 2 1 2 5 5 2 nan nan 0 2 5 5 3 1 nan nan nan 0 0 nan nan nan nan nan nan nan nan nan nan nan nan nan nan nan nan nan nan nan nan nan nan nan nan nan nan 0 0 0 0 nan 0 0 2
nan 0 nan nan nan 0 nan 0 1 1 5 9 23 23 37 38 36 36 47 39 39 25 15 6 6 3 2 nan nan nan 1 1 1 1 1 3 7 7 4 nan nan 0 1 4 4 2 0 nan nan nan nan nan nan nan nan nan nan nan nan nan nan nan nan nan nan nan nan 0 nan nan 0 0 nan nan 0 0 0 0 0 1 1 0 0 nan nan 0
nan nan 0 1 1 3 3 3 4 4 5 11 19 19 36 44 48 48 52 35 35 20 8 5 5 5 9 7 nan nan 0 2 1 1 1 1 2 2 nan nan nan 0 2 4 4 0 0 nan nan nan nan nan 0 0 nan nan nan nan nan nan nan 0 0 0 0 0 0 0 0 0 1 0 1 1 1 1 1 1 2 2 2 2 2 1 1 1
4 2 3 4 4 5 7 12 17 17 18 21 17 17 32 49 49 49 44 31 31 16 5 11 11 8 15 11 4 4 0 1 0 0 1 1 0 0 nan nan nan 1 2 2 2 0 0 0 0 0 nan nan 0 0 nan nan nan nan 0 1 1 1 1 1 1 1 1 1 1 1 0 1 1 1 2 2 2 2 3 4 4 4 3 2 2 5
8 7 5 5 5 8 10 16 23 23 27 29 27 27 32 38 37 37 32 32 32 29 16 10 10 9 15 11 7 7 3 1 1 1 1 1 0 0 nan nan nan 1 0 nan nan 0 1 1 1 1 0 nan nan nan nan nan nan nan 0 1 1 1 1 1 1 2 1 1 1 1 1 1 2 2 2 3 3 3 3 5 5 5 4 6 6 12
7 8 8 8 8 8 10 15 22 22 26 29 30 30 33 33 32 32 37 46 46 33 20 13 13 12 13 10 12 12 4 nan 0 0 0 0 1 1 nan 0 0 0 nan nan nan 0 0 0 0 1 0 nan nan nan nan nan nan 0 0 0 0 0 0 0 0 1 1 0 1 1 1 2 3 3 3 4 4 4 4 5 5 7 6 7 7 8
4 6 11 10 10 10 12 14 22 22 27 29 31 31 31 30 37 37 47 52 52 27 17 12 12 13 15 16 14 14 9 0 0 0 0 0 1 1 nan nan nan 0 nan nan nan 0 0 nan nan 0 0 nan nan nan nan 0 0 nan 1 nan nan nan nan nan nan nan 0 0 1 1 1 2 3 3 4 4 5 5 4 4 4 7 7 6 6 6
0 3 4 6 6 8 11 16 18 18 25 26 31 31 35 29 36 36 62 71 71 40 25 14 14 18 16 16 13 13 10 9 nan nan 0 nan nan nan nan nan nan 0 nan nan nan 0 nan nan nan nan 0 nan nan nan nan nan nan nan nan nan nan 1 nan nan nan nan nan nan 0 0 1 2 4 4 3 5 4 4 5 6 6 8 4 2 2 4
0 0 0 1 1 2 5 6 8 8 12 18 22 22 25 26 28 28 37 58 58 69 47 29 29 22 19 13 10 10 10 11 nan nan nan 0 0 0 nan nan nan nan nan nan nan nan 2 1 1 1 0 nan nan nan nan nan nan nan nan nan nan nan nan nan nan nan nan 0 1 1 1 2 2 2 4 3 4 4 5 6 6 7 3 1 1 2
1 1 1 1 1 3 6 9 8 8 10 14 16 16 20 23 28 28 32 51 51 66 48 24 24 21 17 14 13 13 14 8 nan nan nan 0 1 1 nan 0 0 nan nan nan nan nan nan nan nan 1 1 nan nan nan nan nan nan nan nan nan nan nan nan nan nan nan 1 2 4 4 4 nan 2 2 3 3 5 5 6 6 6 8 6 1 1 2
5 5 4 4 4 5 11 17 16 16 13 13 16 16 18 21 24 24 30 48 48 64 52 27 27 21 26 23 17 17 13 nan nan nan nan 0 1 1 nan 0 0 nan nan nan nan nan nan nan nan 0 1 0 nan nan nan nan nan nan nan nan nan nan nan nan nan nan nan nan nan nan 3 1 6 6 2 3 6 6 8 8 8 9 8 5 5 3
13 10 8 7 7 10 14 18 20 20 16 16 18 18 19 18 20 20 24 37 37 55 55 33 33 29 29 17 16 16 18 nan nan nan nan 0 0 0 nan 0 0 nan nan nan nan nan nan nan nan nan 0 0 0 0 nan nan nan nan nan nan nan nan nan nan nan nan nan nan nan nan nan nan 2 2 3 3 7 7 11 11 11 9 9 10 10 7
23 18 15 11 11 13 15 17 19 19 20 18 17 17 21 21 22 22 26 35 35 50 64 63 63 44 28 27 19 19 16 nan nan nan nan nan nan nan nan nan nan nan nan nan nan nan nan nan nan nan nan nan nan nan nan 0 0 0 nan nan nan nan nan nan nan nan nan nan nan nan nan nan 0 0 1 2 7 7 8 9 9 11 10 9 9 5
31 23 16 15 15 14 13 15 16 16 17 20 20 20 21 19 25 25 30 37 37 51 62 66 66 57 40 33 31 31 17 6 nan nan nan nan nan nan nan nan nan nan nan nan nan nan nan nan nan nan nan nan nan nan nan 0 0 0 nan nan nan nan nan nan nan nan nan nan nan nan nan nan nan nan 1 3 4 4 11 11 11 13 9 10 10 10
22 19 15 13 13 10 8 7 8 8 7 20 37 37 31 21 29 29 29 40 40 47 55 57 57 54 47 37 35 35 23 10 nan nan nan nan nan nan nan nan nan nan nan nan nan nan nan 0 0 1 0 0 nan nan nan nan nan nan nan 0 0 0 0 nan nan nan nan 0 1 1 nan nan nan nan nan 1 3 3 4 7 7 16 10 8 8 12
12 11 13 13 13 9 5 4 5 5 4 9 26 26 40 32 33 33 34 42 42 43 53 54 54 37 40 43 27 27 24 15 nan nan nan nan nan nan nan nan nan nan nan nan nan nan nan nan nan nan nan 0 nan nan nan nan nan nan nan 1 1 1 1 1 1 0 0 nan 1 1 nan nan nan nan nan nan 0 0 1 4 4 11 11 10 10 22
9 10 11 10 10 7 6 6 6 6 5 8 25 25 41 40 39 39 52 41 41 44 50 47 47 37 33 25 20 20 9 12 2 2 nan nan nan nan nan nan nan 0 nan nan nan nan nan nan nan nan nan nan nan nan nan nan nan nan nan nan nan 0 1 1 1 1 0 nan 1 1 0 nan nan nan nan nan 1 1 1 2 2 6 12 9 9 12
31 19 20 15 15 16 13 12 9 9 7 10 22 22 35 44 39 39 41 42 42 44 44 46 46 36 28 14 10 10 5 nan 0 0 nan 0 nan nan nan nan nan 0 nan nan nan nan nan nan nan 0 0 0 0 0 nan nan nan nan nan nan nan nan nan 1 1 0 0 0 1 1 1 0 nan nan nan 0 1 1 2 2 2 5 14 12 12 7
76 74 67 71 71 56 63 44 36 36 30 21 28 28 37 39 37 37 37 43 43 37 39 36 36 31 26 19 12 12 4 nan nan nan nan nan nan nan nan nan nan 0 nan nan nan nan nan nan nan 0 0 0 0 0 nan nan nan nan nan nan nan nan nan 1 1 0 0 0 1 1 4 0 nan nan nan 1 2 2 3 4 4 9 13 14 14 10
105 77 82 94 94 76 71 48 58 58 59 70 68 68 56 50 47 47 35 37 37 35 37 36 36 30 26 24 23 23 1 nan nan nan nan nan nan nan nan nan nan nan nan nan nan nan nan nan nan nan nan nan nan nan nan nan nan nan nan nan nan nan nan nan nan nan nan 0 0 0 1 1 0 0 1 2 3 3 4 8 8 14 19 18 18 15
40 37 39 40 40 39 31 22 18 18 37 62 83 83 95 78 46 46 34 29 29 29 39 48 48 37 28 23 26 26 14 nan nan nan nan nan nan nan nan nan nan nan nan nan nan nan 0 0 0 nan nan nan nan nan nan nan nan nan nan nan nan nan nan nan nan nan 0 1 1 1 1 3 3 3 3 2 3 3 3 7 7 7 18 21 21 18
17 17 15 20 20 24 18 14 6 6 13 17 64 64 86 84 67 67 47 30 30 36 41 51 51 47 29 27 30 30 25 6 nan nan nan nan nan nan nan nan nan nan nan nan nan nan nan nan nan nan nan nan nan nan nan nan nan nan nan nan nan nan nan nan nan nan 0 0 nan nan 2 4 6 6 3 4 2 2 4 5 5 7 13 19 19 17
12 11 9 10 10 13 14 14 7 7 1 1 9 9 38 59 72 72 76 50 50 44 42 49 49 44 31 30 38 38 36 17 nan nan 0 nan nan nan nan nan nan nan nan nan nan nan nan nan nan nan nan nan nan nan nan nan nan nan nan nan nan nan nan nan nan nan nan nan nan nan 1 6 6 6 3 3 4 4 4 5 5 5 8 14 14 9
9 9 9 9 9 8 10 12 11 11 5 1 1 1 8 32 65 65 76 65 65 57 54 54 54 46 35 35 37 37 30 23 3 3 0 0 0 0 0 nan nan nan nan nan nan nan nan nan nan nan nan nan nan nan nan nan nan nan nan nan nan nan nan nan nan nan nan nan nan nan 0 4 4 4 4 3 2 2 0 0 0 3 9 8 8 3
14 14 9 9 9 9 9 11 11 11 10 8 3 3 1 8 39 39 68 81 81 67 84 55 55 51 45 41 37 37 27 22 19 19 1 0 0 0 0 nan nan nan nan nan nan nan nan nan nan nan nan nan nan nan nan nan nan nan nan nan nan nan nan nan nan nan nan nan nan nan 0 2 2 2 3 1 1 1 nan nan nan nan nan nan nan nan
16 18 18 14 14 14 12 11 12 12 10 9 7 7 2 2 16 16 41 79 79 80 69 61 61 56 51 46 37 37 27 22 24 24 13 2 1 1 0 nan nan nan nan nan nan 1 0 nan nan nan nan nan nan nan 0 nan nan nan nan nan nan nan nan nan nan nan nan nan nan nan nan 1 1 1 3 2 1 1 1 nan nan nan nan nan nan nan
17 18 20 17 17 15 13 12 10 10 12 10 9 9 5 2 3 3 23 51 51 74 84 82 82 77 59 51 42 42 31 23 23 23 22 5 1 1 1 nan nan nan nan nan nan 1 2 1 1 nan nan nan nan nan 0 nan nan nan nan nan nan nan nan nan nan nan nan nan nan nan nan 0 1 1 2 1 0 0 2 0 0 nan nan nan nan nan
18 17 15 18 18 16 13 12 10 10 10 10 9 9 6 4 3 3 10 33 33 63 96 123 123 100 59 50 44 44 34 23 19 19 25 11 1 1 1 0 0 nan nan nan nan nan nan 1 1 1 0 nan nan nan nan 0 0 nan nan nan nan nan nan nan nan nan nan nan nan nan nan nan 1 1 2 1 0 0 0 0 0 nan nan nan nan nan
CIN
-0 -0 -0 -0 -0 -0 -0 -0 -0 -0 -0 -0 nan nan nan nan nan nan nan nan nan nan nan -0 -0 nan nan nan nan nan nan nan nan nan nan nan nan nan nan nan nan nan nan nan nan nan nan nan nan nan nan -121 -92 -92 -82 -68 -68 -80 -54 -75 -75 -81 -82 nan nan nan nan nan nan nan nan nan nan nan nan nan nan nan nan nan nan nan -23 -11 -11 -0
-0 -0 -0 -0 -0 -0 -0 -0 -0 -0 -0 -0 -0 -0 nan nan nan nan nan -0 -0 -0 nan nan nan -0 nan nan nan nan nan nan nan nan nan nan nan nan nan nan nan nan nan nan nan nan nan nan nan nan nan nan -127 -127 -41 -47 -47 -85 -86 -94 -94 -81 -68 nan nan nan nan nan nan nan nan nan nan nan nan nan nan nan nan -26 -26 -24 -16 -4 -4 -0
-0 -0 -0 -0 -0 -0 -0 -0 -0 -0 -0 -0 -0 -0 -0 -0 nan nan -0 -0 -0 -0 nan -0 -0 nan nan nan nan nan -0 -0 -0 -0 nan nan nan nan nan nan nan nan nan nan nan nan nan nan nan nan nan nan nan nan nan nan nan nan nan nan nan nan nan nan nan nan nan nan nan nan nan nan nan nan nan nan nan nan nan -19 -19 -16 -8 -0 -0 -0
-0 -0 -0 -0 -0 -0 -0 -0 -0 -0 -0 -0 -0 -0 -0 -0 -0 -0 -0 -0 -0 -0 -0 -0 -0 nan nan nan nan nan nan nan -0 -0 -0 -0 nan nan nan nan nan nan nan nan nan nan nan nan nan nan nan nan nan nan nan nan nan nan nan nan nan nan nan nan nan nan nan nan nan nan nan nan nan nan nan nan nan nan nan -12 -12 -9 -2 -0 -0 -0
-0 -0 -0 -0 -0 -0 -0 -0 -0 -0 -0 -0 -0 -0 -0 -0 -0 -0 -0 -0 -0 -0 -0 -0 -0 -0 nan nan nan nan nan nan nan nan -0 -0 -0 -0 -0 nan nan nan nan nan nan nan nan nan nan nan nan nan nan nan nan nan nan nan nan nan nan nan nan nan nan nan nan nan nan nan nan nan nan nan nan nan nan nan -10 -8 -8 -3 -0 -0 -0 -0
-1 -0 -0 -0 -0 -0 -0 -0 -0 -0 -0 -0 -0 -0 -0 -0 -0 -0 -0 -0 -0 -0 -0 -0 -0 -0 -0 -0 nan nan nan nan nan nan nan -0 -0 -0 -0 -0 -0 nan nan nan nan nan nan nan nan nan nan nan nan nan nan nan nan nan nan nan nan nan nan nan nan nan nan nan nan nan nan nan nan nan nan nan nan nan -8 -6 -6 -2 -0 -0 -0 -0
-0 -0 -0 -0 -0 -0 -0 -1 -0 -0 -0 -0 -0 -0 -0 -0 -0 -0 -0 -0 -0 -0 -0 -0 -0 -0 -0 -0 -0 -0 nan nan nan nan -0 -0 -0 -0 -0 -0 -0 -0 nan nan nan nan nan nan nan nan nan nan nan nan nan nan nan nan nan nan nan nan nan nan nan nan nan nan nan nan nan nan nan nan nan nan -9 -9 -7 -5 -5 -2 -0 -0 -0 -0
-0 -0 -0 -0 -0 -0 -0 -0 -0 -0 -0 -0 -0 -0 -0 -1 nan nan -0 -0 -0 -0 -0 -0 -0 -0 -1 -0 -0 -0 -0 -0 -0 -0 -0 -0 -0 -0 -0 -0 -0 -0 -0 -0 -0 nan nan nan nan nan nan nan nan nan nan nan nan nan nan nan nan nan nan nan nan nan nan nan nan nan nan nan nan nan nan -26 -20 -20 -9 -2 -2 -0 -0 -0 -0 -0
-0 -0 -0 -1 -1 -0 -0 -0 -0 -0 -0 -0 -0 -0 -0 -0 -0 -0 nan nan nan -1 -1 -0 -0 -0 -0 -0 -0 -0 -0 -0 -0 -0 -0 -0 -0 -0 -0 -0 -0 -0 -0 -0 -0 -0 nan nan nan nan nan nan nan nan nan nan nan nan nan nan nan nan nan nan nan nan nan nan nan nan nan nan nan nan nan -28 -23 -23 -15 -5 -5 -0 -0 -0 -0 -0
-1 -0 -0 -0 -0 -0 -0 -0 -0 -0 -0 -0 -0 -0 -0 -0 -0 -0 -0 -2 -2 -2 nan -0 -0 -0 -0 -0 -0 -0 -0 -0 -0 -0 -0 nan -0 -0 -1 -1 -1 -0 -0 nan nan nan -0 -0 -0 nan nan nan nan nan nan nan nan nan nan nan nan nan nan nan nan nan nan nan nan nan nan nan nan nan nan -28 -25 -25 -23 -14 -14 -4 -1 -0 -0 -0
-0 -0 -0 -0 -0 -1 -0 -0 -0 -0 -0 -0 -0 -0 -0 -0 -0 -0 -0 -0 -0 -1 nan nan nan -0 -0 -0 -0 -0 -0 -0 -0 -0 -0 -1 nan nan nan -3 -3 -3 -1 nan nan nan nan nan nan nan nan nan nan nan nan nan nan nan nan nan nan nan nan nan nan nan nan nan nan nan nan nan nan nan nan -26 -28 -28 -28 -24 -24 -18 -11 -4 -4 -3
-1 -0 -0 -0 -0 -0 -1 -0 -0 -0 -0 -0 -0 -0 -0 -0 -0 -0 -0 -0 -0 -1 -0 -0 -0 -1 -0 -0 -0 -0 -0 -0 -0 -0 -0 -0 -0 -0 -0 -0 -0 -1 -0 -1 -1 nan nan nan nan nan nan nan nan nan nan nan nan nan nan nan nan nan nan nan nan nan nan nan nan nan nan nan nan nan -21 -24 -27 -27 -31 -32 -32 -30 -26 -19 -19 -11
-2 -1 -1 -1 -1 -0 -0 -1 -0 -0 -0 -0 -0 -0 -0 -0 -0 -0 -0 -0 -0 -1 -1 -0 -0 -0 -1 -1 -1 -1 -0 -0 -0 -0 -0 -0 -0 -0 -0 -0 -0 -1 -0 -0 -0 -1 nan nan nan nan nan nan nan nan nan nan nan nan nan nan nan nan nan nan nan nan nan nan nan nan nan nan nan nan -22 -24 -27 -27 -30 -32 -32 -32 -34 -29 -29 -21
-1 -2 -1 -0 -0 -0 -0 -0 -0 -0 -0 -0 -0 -0 -0 -0 -0 -0 -0 -0 -0 -0 -1 -1 -1 -1 -1 -0 -1 -1 -1 -0 -0 -0 -0 -0 -0 -0 -1 -0 -0 -0 -1 -1 -1 -1 -3 nan nan nan nan nan nan nan nan nan nan nan nan nan nan nan nan nan nan nan nan nan nan nan nan nan nan nan -26 -27 -26 -26 -29 -31 -31 -31 -32 -31 -31 -25
-1 -0 -0 -0 -0 -0 -0 -0 -0 -0 -0 -0 -0 -0 -0 -0 -0 -0 -0 -0 -0 -0 -0 -0 -0 -0 -1 -2 -0 -0 -0 -0 -0 -0 -0 -0 -0 -0 -0 -0 -0 -1 -1 -1 -1 -1 -3 -3 -3 -2 nan nan nan nan nan nan nan nan nan nan nan nan nan nan nan nan nan nan nan nan nan nan nan nan -30 -31 -30 -30 -29 -28 -28 -27 -26 -22 -22 -19
-2 -0 -0 -0 -0 -0 -0 -0 -0 -0 -0 -0 -0 -0 -0 -0 -0 -0 -0 -0 -0 -0 -0 -0 -0 -0 -0 nan nan nan -0 -0 -0 -0 -1 -1 -1 -1 -0 -0 -0 -0 -0 -1 -1 -1 -3 -2 -2 -2 nan nan nan nan nan nan nan nan nan nan nan nan nan nan nan nan nan nan nan nan nan nan nan nan nan nan nan nan -27 -24 -24 -22 -18 -15 -15 -12
nan -1 -2 -0 -0 -0 -0 -1 -0 -0 -0 -0 -0 -0 -0 -0 -0 -0 -0 -0 -0 -0 -0 -0 -0 -0 -0 nan -0 -0 -0 -0 -0 -0 -1 -1 -1 -1 nan -0 -0 -0 -0 -1 -1 -2 -3 -2 -2 -2 -4 nan nan nan nan nan nan nan nan nan nan nan nan nan nan nan nan nan nan nan nan nan nan nan nan nan nan nan nan -19 -19 -14 -11 -9 -9 -9
nan nan -3 -0 -0 -0 -1 -3 -2 -2 -2 -0 -0 -0 -0 -0 -0 -0 -0 -0 -0 -0 -0 -1 -1 -1 -1 -1 -0 -0 -0 -0 -0 -0 -0 -1 -1 -1 -0 -0 -0 -0 -1 -1 -1 -2 -2 -2 -2 -3 -6 nan nan nan nan nan nan nan nan nan nan nan nan nan nan nan nan nan nan nan nan nan nan nan nan nan nan nan nan nan nan -9 -6 -6 -6 -8
nan nan nan -4 -4 -1 -2 -3 -3 -3 -0 -1 -0 -0 -1 -1 -0 -0 -0 -0 -0 -0 -0 -0 -0 -1 -0 -0 -0 -0 -0 -0 -0 -0 -0 -0 -2 -2 -0 -0 -0 -0 -1 -1 -1 -1 -1 -3 -3 -10 nan nan nan nan nan nan nan nan nan nan nan nan nan nan nan nan nan nan nan nan nan nan nan nan nan nan nan nan nan nan nan -7 -6 -6 -6 -8
nan nan nan nan nan nan -4 -2 -0 -0 -0 -1 -0 -0 -1 -1 -0 -0 -0 -0 -0 -1 -1 -0 -0 -0 -0 -0 nan nan -0 -0 -0 -0 -0 -0 -1 -1 -0 -0 -0 -0 -0 -1 -1 -1 -0 -0 -0 nan nan nan nan nan nan nan nan nan nan nan nan nan nan nan nan nan nan nan nan nan nan nan nan nan nan nan nan nan nan nan nan -6 -7 -7 -7 -9
nan nan nan nan nan nan nan nan -1 -1 -1 -0 -2 -2 -3 -2 -1 -1 -0 -0 -0 -1 -1 -0 -0 -0 -0 -2 nan nan -0 -0 -0 -0 -0 -0 -1 -1 -1 -0 -0 -0 -0 -1 -1 -0 -0 -0 -0 -0 nan nan nan nan nan nan nan nan nan nan nan nan nan nan nan nan nan nan nan nan nan nan nan nan nan nan nan nan nan nan nan -6 -7 -7 -7 -10
nan nan nan nan nan nan nan nan -2 -2 -3 -1 -1 -1 -2 -2 -1 -1 -0 -0 -0 -0 -0 -1 -1 -1 -1 -4 -0 -0 -0 -0 -0 -0 -0 -0 -1 -1 -4 -0 -0 -0 -0 -0 -0 -0 -0 -0 -0 -0 -0 nan nan nan nan nan nan nan nan nan nan nan nan nan nan nan nan nan nan nan nan nan nan nan nan nan nan nan nan nan nan -6 -7 -7 -7 -9
nan nan nan nan nan nan nan -0 -0 -0 -0 -0 -0 -0 -2 -1 -2 -2 -0 -0 -0 -0 -0 -2 -2 -6 nan nan -0 -0 -0 -0 -1 -1 nan -0 -0 -0 -3 -0 -0 -0 -0 -1 -1 -0 -0 -0 -0 nan -0 -0 nan nan nan nan nan nan nan nan nan nan nan nan nan nan nan nan nan nan nan nan nan nan nan nan nan nan nan nan nan nan -6 -9 -9 -9
-0 nan nan nan nan nan -0 -0 -0 -0 -0 -0 -1 -1 -2 -1 -0 -0 -0 -0 -0 -0 -0 -2 -2 nan nan nan -0 -0 -0 -0 -0 -0 -0 -0 -0 -0 -2 nan nan -0 -0 -1 -1 -0 -0 nan nan nan -0 -0 nan nan nan nan nan nan nan nan nan nan nan nan nan nan nan nan nan nan nan nan nan nan nan nan nan nan -0 -0 -0 -0 nan -7 -7 -8
nan -0 nan nan nan -0 nan -0 -0 -0 -0 -0 -0 -0 -2 -2 -2 -2 -1 -0 -0 -1 -1 -1 -1 -0 -1 nan nan nan -0 -0 -0 -0 -0 -0 -0 -0 -2 nan nan -0 -0 -1 -1 -0 -0 nan nan nan nan nan nan nan nan nan nan nan nan nan nan nan nan nan nan nan nan -0 nan nan -0 -0 nan nan -0 -0 -0 -0 -0 -0 -0 -1 -2 nan nan -8
nan nan -0 -0 -0 -0 -0 -0 -0 -0 -0 -0 -0 -0 -1 -1 -2 -2 -1 -1 -1 -2 -1 -0 -0 -0 -1 -1 nan nan -0 -0 -0 -0 -0 -0 -2 -2 nan nan nan -1 -0 -1 -1 -0 -0 nan nan nan nan nan -0 -0 nan nan nan nan nan nan nan -0 -0 -0 -0 -0 -0 -0 -0 -0 -0 -0 -0 -0 -0 -0 -0 -0 -0 -0 -0 -0 -1 -4 -4 -6
-0 -0 -0 -0 -0 -0 -0 -0 -0 -0 -0 -0 -0 -0 -1 -1 -0 -0 -1 -1 -1 -2 -0 -0 -0 -1 -1 -1 -2 -2 -0 -0 -0 -0 -1 -1 -2 -2 nan nan nan -0 -0 -2 -2 -0 -0 -1 -1 -0 nan nan -0 -0 nan nan nan nan -0 -0 -0 -0 -0 -0 -0 -0 -0 -0 -0 -0 -0 -0 -0 -0 -0 -0 -0 -0 -0 -0 -0 -0 -2 -4 -4 -4
-0 -0 -0 -0 -0 -0 -0 -0 -0 -0 -0 -0 -0 -0 -0 -1 -0 -0 -0 -2 -2 -1 -1 -1 -1 -1 -1 -1 -1 -1 -0 -0 -0 -0 -1 -0 -2 -2 nan nan nan -0 -1 nan nan -0 -0 -0 -0 -0 -1 nan nan nan nan nan nan nan -1 -0 -0 -0 -0 -0 -0 -0 -0 -0 -0 -0 -0 -0 -0 -0 -0 -0 -0 -0 -0 -0 -0 -1 -2 -2 -2 -1
-0 -0 -0 -0 -0 -0 -0 -0 -0 -0 -0 -0 -0 -0 -0 -2 -0 -0 -0 -1 -1 -2 -1 -1 -1 -1 -1 -1 -2 -2 -2 nan -0 -0 -1 -0 -1 -1 nan -0 -0 -0 nan nan nan -0 -0 -0 -0 -0 -0 nan nan nan nan nan nan -1 -0 -1 -1 -1 -1 -0 -0 -0 -0 -0 -0 -0 -0 -0 -0 -0 -0 -0 -0 -0 -0 -0 -0 -0 -1 -1 -1 -2
-0 -0 -0 -0 -0 -0 -0 -0 -0 -0 -0 -0 -0 -0 -0 -1 -1 -1 -0 -0 -0 -2 -1 -3 -3 -2 -1 -1 -3 -3 -4 -1 -0 -0 -1 -0 -1 -1 nan nan nan -0 nan nan nan -0 -0 nan nan -0 -0 nan nan nan nan -0 -0 nan -0 nan nan nan nan nan nan nan -0 -0 -0 -0 -0 -0 -0 -0 -0 -0 -0 -0 -0 -0 -0 -0 -1 -1 -1 -2
-0 -0 -0 -0 -0 -0 -0 -0 -0 -0 -0 -0 -0 -0 -0 -1 -3 -3 -0 -0 -0 -1 -1 -4 -4 -2 -2 -1 -1 -1 -2 -1 nan nan -1 nan nan nan nan nan nan -0 nan nan nan -0 nan nan nan nan -1 nan nan nan nan nan nan nan nan nan nan -0 nan nan nan nan nan nan -0 -0 -0 -0 -0 -0 -0 -0 -0 -0 -0 -0 -0 -0 -2 -2 -2 -3
-0 -0 -0 -0 -0 -0 -0 -0 -0 -0 -0 -0 -0 -0 -0 -0 -0 -0 -2 -2 -2 -1 -1 -2 -2 -3 -3 -3 -2 -2 -0 -1 nan nan nan -1 -3 -3 nan nan nan nan nan nan nan nan -0 -0 -0 -0 -0 nan nan nan nan nan nan nan nan nan nan nan nan nan nan nan nan -0 -0 -0 -0 -0 -0 -0 -0 -0 -0 -0 -0 -0 -0 -0 -1 -2 -2 -3
-0 -0 -0 -0 -0 -0 -0 -0 -0 -0 -0 -0 -0 -0 -0 -0 -0 -0 -0 -5 -5 -2 -1 -3 -3 -4 -5 -5 -4 -4 -2 -2 nan nan nan -1 -2 -2 nan -1 -1 nan nan nan nan nan nan nan nan -0 -0 nan nan nan nan nan nan nan nan nan nan nan nan nan nan nan -0 -0 -0 -0 -0 nan -0 -0 -0 -0 -0 -0 -0 -0 -0 -0 -1 -3 -3 -3
-0 -0 -0 -0 -0 -0 -0 -0 -0 -0 -0 -0 -0 -0 -0 -0 -0 -0 -0 -5 -5 -2 -1 -4 -4 -6 -2 -2 -4 -4 -5 nan nan nan nan -0 -2 -2 nan -0 -0 nan nan nan nan nan nan nan nan -0 -0 -0 nan nan nan nan nan nan nan nan nan nan nan nan nan nan nan nan nan nan -1 -1 -0 -0 -0 -0 -0 -0 -0 -0 -0 -0 -0 -1 -1 -2
-0 -0 -0 -0 -0 -0 -0 -0 -0 -0 -0 -0 -0 -0 -0 -0 -0 -0 -0 -2 -2 -2 -2 -4 -4 -4 -3 -5 -5 -5 -5 nan nan nan nan -0 -2 -2 nan -1 -1 nan nan nan nan nan nan nan nan nan -0 -0 -0 -0 nan nan nan nan nan nan nan nan nan nan nan nan nan nan nan nan nan nan -1 -1 -1 -1 -0 -0 -0 -0 -0 -0 -0 -0 -0 -1
-0 -0 -0 -1 -1 -0 -0 -0 -0 -0 -0 -0 -0 -0 -0 -0 -0 -0 -1 -2 -2 -2 -1 -1 -1 -3 -5 -4 -5 -5 -7 nan nan nan nan nan nan nan nan nan nan nan nan nan nan nan nan nan nan nan nan nan nan nan nan -0 -0 -0 nan nan nan nan nan nan nan nan nan nan nan nan nan nan -8 -8 -4 -1 -1 -1 -1 -0 -0 -0 -0 -0 -0 -1
-0 -0 -0 -0 -0 -0 -0 -0 -0 -0 -0 -0 -8 -8 -3 -3 -0 -0 -0 -1 -1 -0 -2 -1 -1 -2 -4 -4 -3 -3 -9 -17 nan nan nan nan nan nan nan nan nan nan nan nan nan nan nan nan nan nan nan nan nan nan nan -0 -0 -0 nan nan nan nan nan nan nan nan nan nan nan nan nan nan nan nan -6 -3 -1 -1 -0 -1 -1 -0 -0 -0 -0 -1
-0 -0 -0 -0 -0 -0 -0 -0 -0 -0 -0 -0 -0 -0 -3 -11 -3 -3 -0 -0 -0 -0 -1 -2 -2 -2 -2 -2 -1 -1 -3 -7 nan nan nan nan nan nan nan nan nan nan nan nan nan nan nan -1 -1 -1 -1 -2 nan nan nan nan nan nan nan -0 -0 -0 -0 nan nan nan nan -2 -1 -1 nan nan nan nan nan -5 -4 -4 -4 -1 -1 -0 -0 -0 -0 -1
-1 -3 -0 -0 -0 -0 -0 -0 -0 -0 -0 -0 -5 -5 -4 -9 -7 -7 -1 -0 -0 -1 -0 -1 -1 -4 -2 -1 -2 -2 -4 -6 nan nan nan nan nan nan nan nan nan nan nan nan nan nan nan nan nan nan nan -2 nan nan nan nan nan nan nan -0 -0 -0 -0 -1 -1 -1 -1 nan -1 -1 nan nan nan nan nan nan -8 -8 -7 -3 -3 -2 -1 -0 -0 -0
-0 -0 -0 -0 -0 -0 -0 -0 -0 -0 -0 -0 -2 -2 -2 -2 -2 -2 -0 -0 -0 -0 -0 -2 -2 -3 -2 -2 -2 -2 -9 -8 -20 -20 nan nan nan nan nan nan nan -21 nan nan nan nan nan nan nan nan nan nan nan nan nan nan nan nan nan nan nan -0 -0 -0 -0 -1 -1 nan -1 -1 -2 nan nan nan nan nan -5 -5 -5 -7 -7 -5 -3 -2 -2 -0
-1 -0 -0 -0 -0 -0 -0 -0 -0 -0 -0 -0 -0 -0 -0 -0 -0 -0 -0 -0 -0 -0 -1 -1 -1 -2 -1 -2 -3 -3 -10 nan -34 -34 nan -3 nan nan nan nan nan -29 nan nan nan nan nan nan nan -3 -4 -4 -3 -3 nan nan nan nan nan nan nan nan nan -0 -0 -0 -1 -1 -2 -2 -3 -4 nan nan nan -5 -5 -5 -6 -7 -7 -6 -3 -4 -4 -6
-0 -0 -1 -2 -2 -6 -2 -2 -5 -5 -1 -0 -0 -0 -0 -0 -0 -0 -0 -0 -0 -0 -0 -2 -2 -1 -1 -1 -1 -1 -7 nan nan nan nan nan nan nan nan nan nan -29 nan nan nan nan nan nan nan -3 -3 -3 -4 -4 nan nan nan nan nan nan nan nan nan -0 -0 -0 -1 -1 -2 -2 -1 -2 nan nan nan -3 -4 -4 -6 -6 -6 -4 -3 -3 -3 -6
-0 -0 -1 -1 -1 -1 -0 -1 -0 -0 -0 -0 -0 -0 -0 -0 -0 -0 -0 -0 -0 -0 -1 -2 -2 -1 -0 -0 -0 -0 -2 nan nan nan nan nan nan nan nan nan nan nan nan nan nan nan nan nan nan nan nan nan nan nan nan nan nan nan nan nan nan nan nan nan nan nan nan -1 -2 -2 -2 -2 -2 -2 -2 -3 -4 -4 -5 -4 -4 -3 -2 -3 -3 -3
-0 -0 -3 -4 -4 -0 -0 -2 -3 -3 -1 -0 -0 -0 -0 -0 -0 -0 -0 -0 -0 -0 -0 -0 -0 -1 -0 -0 -0 -0 -1 nan nan nan nan nan nan nan nan nan nan nan nan nan nan nan -1 -1 -1 nan nan nan nan nan nan nan nan nan nan nan nan nan nan nan nan nan -1 -0 -2 -2 -2 -2 -2 -2 -2 -3 -4 -4 -5 -3 -3 -5 -2 -2 -2 -3
-0 -0 -0 -0 -0 -0 -0 -0 -1 -1 -4 -3 -1 -1 -1 -2 -1 -1 -0 -0 -0 -0 -0 -0 -0 -1 -1 -0 -1 -1 -1 -0 nan nan nan nan nan nan nan nan nan nan nan nan nan nan nan nan nan nan nan nan nan nan nan nan nan nan nan nan nan nan nan nan nan nan -0 -1 nan nan -2 -2 -1 -1 -1 -1 -2 -2 -3 -3 -3 -3 -3 -2 -2 -4
-0 -0 -1 -0 -0 -0 -0 -0 -0 -0 -0 -1 -2 -2 -4 -5 -1 -1 -0 -0 -0 -0 -0 -3 -3 -1 -0 -0 -0 -0 -0 -0 nan nan -0 nan nan nan nan nan nan nan nan nan nan nan nan nan nan nan nan nan nan nan nan nan nan nan nan nan nan nan nan nan nan nan nan nan nan nan -3 -1 -1 -1 -0 -1 -1 -1 -1 -2 -2 -3 -3 -3 -3 -6
-1 -1 -1 -0 -0 -0 -0 -0 -0 -0 -0 -0 -1 -1 -3 -7 -3 -3 -1 -1 -1 -0 -0 -0 -0 -0 -0 -0 -0 -0 -0 -0 -4 -4 -0 -0 -0 -0 -1 nan nan nan nan nan nan nan nan nan nan nan nan nan nan nan nan nan nan nan nan nan nan nan nan nan nan nan nan nan nan nan -4 -1 -0 -0 -0 -1 -1 -1 -2 -5 -5 -5 -4 -5 -5 -7
-0 -0 -0 -0 -0 -0 -0 -0 -0 -0 -0 -0 -0 -0 -3 -5 -4 -4 -2 -1 -1 -1 -0 -0 -0 -0 -0 -0 -0 -0 -0 -0 -4 -4 -0 -0 -0 -0 -0 nan nan nan nan nan nan nan nan nan nan nan nan nan nan nan nan nan nan nan nan nan nan nan nan nan nan nan nan nan nan nan -3 -1 -0 -0 -0 -1 -1 -1 nan nan nan nan nan nan nan nan
-0 -0 -0 -0 -0 -0 -0 -0 -0 -0 -0 -0 -0 -0 -0 -3 -0 -0 -5 -2 -2 -0 -0 -0 -0 -0 -0 -0 -0 -0 -0 -0 -3 -3 -0 -0 -0 -0 -1 nan nan nan nan nan nan -1 -2 nan nan nan nan nan nan nan -0 nan nan nan nan nan nan nan nan nan nan nan nan nan nan nan nan -1 -1 -1 -1 -0 -0 -0 -1 nan nan nan nan nan nan nan
-0 -0 -0 -0 -0 -0 -0 -0 -0 -0 -0 -0 -0 -0 -0 -0 -11 -11 -8 -6 -6 -2 -0 -0 -0 -0 -0 -0 -0 -0 -0 -0 -0 -0 -2 -1 -0 -0 -0 nan nan nan nan nan nan -0 -0 -0 -0 nan nan nan nan nan -0 nan nan nan nan nan nan nan nan nan nan nan nan nan nan nan nan -2 -2 -2 -1 -1 -1 -1 -1 -1 -1 nan nan nan nan nan
-0 -0 -0 -0 -0 -0 -0 -0 -0 -0 -0 -0 -0 -0 -0 -0 -3 -3 -3 -7 -7 -4 -0 -0 -0 -0 -0 -1 -1 -1 -0 -0 -0 -0 -0 -6 -0 -0 -0 -0 -0 nan nan nan nan nan nan -0 -0 -0 -0 nan nan nan nan -0 -0 nan nan nan nan nan nan nan nan nan nan nan nan nan nan nan -1 -1 -1 -1 -1 -1 -1 -1 -1 nan nan nan nan nan
Wind_Speed
2 3 3 5 4 4 3 2 3 3 4 3 3 3 2 3 4 5 6 6 6 6 5 4 4 5 5 6 7 9 11 14 17 20 23 25 26 27 27 25 24 23 22 20 19 18 17 17 17 18 19 20 21 22 23 23 23 23 23 23 24 25 26 27 27 27 28 28 29 29 29 29 28 28 27 27 27 26 25 25 24 24 24 24 25 25
2 3 3 4 5 4 4 3 3 3 4 4 3 3 2 3 4 4 5 6 6 6 5 4 4 5 5 5 6 7 9 11 13 15 18 22 25 27 27 27 27 26 25 24 23 21 20 19 18 18 19 20 21 22 23 23 23 23 23 23 25 26 27 27 27 28 28 29 29 29 29 28 28 28 28 28 28 27 27 26 25 25 25 25 26 26
3 3 3 4 4 4 4 4 4 3 4 4 4 4 4 4 4 4 4 5 5 5 5 4 4 4 5 5 6 8 9 10 11 12 13 16 19 22 24 25 26 26 26 25 24 23 22 21 20 19 19 20 21 21 22 22 22 23 23 23 25 26 26 25 26 26 28 28 28 28 28 28 29 29 29 29 29 29 28 27 26 26 26 27 27 26
3 3 4 3 3 4 5 5 5 4 4 4 5 5 5 4 4 3 3 4 4 4 4 4 4 4 4 4 5 7 8 9 10 11 11 12 13 14 17 19 22 23 24 24 24 24 23 22 22 21 21 21 21 21 21 21 21 22 22 22 24 25 25 24 24 25 26 27 27 27 27 28 29 29 30 30 30 30 29 28 28 27 27 27 27 27
3 3 3 3 3 4 4 5 5 5 5 4 5 5 5 4 4 3 3 4 4 4 4 4 4 4 4 4 5 6 8 9 9 10 10 11 11 12 12 14 16 18 21 22 23 23 23 23 22 22 22 22 22 22 21 21 21 21 21 21 22 23 23 23 23 24 25 25 26 26 27 28 28 29 29 30 30 30 30 29 29 28 28 28 27 27
3 2 2 2 3 3 3 4 4 4 5 4 4 4 4 3 3 3 3 3 4 4 4 3 4 4 4 4 5 6 8 9 9 9 9 10 11 11 12 12 13 14 17 19 21 22 23 23 23 23 23 22 22 22 22 22 21 21 21 21 21 22 22 23 23 24 25 25 25 26 26 26 27 27 28 28 29 29 30 29 29 29 29 28 28 27
4 3 2 2 2 3 3 3 3 3 3 4 4 4 3 3 3 3 4 3 3 3 3 3 3 3 3 4 5 6 7 8 8 9 9 9 10 10 11 12 12 13 14 16 18 20 22 23 24 24 24 23 23 23 23 23 22 22 22 22 22 23 23 23 23 24 25 25 25 25 25 25 25 25 25 26 27 28 29 29 29 29 29 28 28 27
5 4 3 3 3 3 2 2 2 2 3 3 4 4 3 2 2 3 4 4 3 3 3 3 3 3 3 4 4 5 6 6 7 7 8 8 9 9 10 11 12 12 12 13 15 17 20 22 24 25 25 25 24 24 24 24 24 24 23 24 24 25 25 24 24 25 26 26 26 26 25 25 24 24 24 24 25 26 27 28 28 28 28 28 28 27
6 6 5 4 3 3 3 3 2 1 1 3 3 4 4 4 3 3 3 3 3 3 2 3 3 3 3 3 4 4 5 5 6 6 6 6 7 7 8 9 10 11 11 12 12 14 16 18 21 24 25 26 26 25 25 25 25 26 26 26 27 27 27 26 26 26 27 28 27 27 26 25 25 24 24 23 24 24 25 26 27 28 28 27 27 27
6 6 6 5 4 3 3 3 2 1 1 2 3 3 4 4 4 4 3 3 3 2 2 3 3 4 4 3 3 3 5 6 7 8 8 8 7 8 8 8 9 9 10 11 11 12 12 14 17 20 23 25 26 26 26 26 26 27 28 29 30 30 29 28 28 28 29 29 29 28 27 26 26 25 24 24 24 24 24 25 26 26 27 27 27 26
6 6 5 5 4 3 3 3 3 2 1 2 3 3 3 4 4 4 5 5 3 2 2 3 3 4 4 3 3 3 3 5 6 7 9 9 9 9 9 9 8 9 10 10 10 11 11 12 13 15 19 22 24 25 25 25 25 26 27 29 30 30 31 30 29 30 30 30 30 29 27 27 26 25 25 24 24 24 23 24 24 24 25 25 26 26
5 5 4 4 4 4 3 3 2 2 2 2 3 3 3 3 3 4 5 5 4 3 2 3 3 3 4 3 3 3 3 4 4 5 6 6 7 7 8 7 8 8 9 9 9 10 10 10 11 12 14 16 19 22 22 22 21 22 22 24 25 27 29 29 30 31 31 30 29 28 27 26 26 25 25 24 24 23 23 22 22 22 23 23 24 24
5 4 4 4 4 4 4 3 3 2 2 2 3 3 3 2 2 3 4 5 4 4 3 3 3 3 3 3 3 2 2 3 4 4 4 5 5 5 5 6 6 6 6 7 7 8 9 9 9 9 10 11 13 16 18 18 17 17 16 17 19 21 24 26 28 29 29 28 27 27 26 26 25 25 24 23 23 22 21 21 21 20 20 21 21 22
5 4 4 5 5 4 4 4 4 4 3 3 3 3 3 2 2 2 3 4 4 4 3 3 3 3 3 3 3 3 3 3 3 3 4 5 5 5 4 5 5 5 5 5 6 7 7 7 7 7 8 8 10 11 14 15 16 16 16 16 16 17 20 22 24 25 25 25 25 25 25 25 24 24 23 22 21 21 20 19 19 18 18 18 19 20
5 5 6 6 5 5 4 4 5 5 4 4 3 3 3 3 2 2 3 4 4 3 2 3 4 4 3 3 3 3 3 3 3 4 5 5 5 4 4 5 5 5 5 5 6 6 7 7 6 6 6 7 7 8 10 12 16 19 18 18 18 18 19 20 21 21 22 23 23 24 24 24 24 23 23 22 21 20 19 18 17 17 17 17 18 19
5 5 6 6 6 5 5 5 5 5 5 4 4 4 4 3 3 3 3 4 3 3 2 3 4 4 4 3 3 3 4 4 4 4 5 5 4 4 4 4 5 5 5 5 6 6 6 6 7 7 7 7 8 8 8 10 14 19 20 21 21 20 20 20 20 21 21 22 23 23 23 23 23 23 22 21 21 20 19 18 17 17 17 17 18 19
5 5 6 6 6 6 5 5 5 5 5 5 4 4 4 4 3 3 3 3 3 2 2 2 3 3 3 1 2 3 4 4 4 4 5 5 4 3 4 4 5 6 5 5 5 5 5 6 6 7 7 8 9 9 9 9 12 15 19 22 23 23 23 22 22 22 22 23 23 23 23 23 22 22 21 21 20 19 18 18 18 18 18 18 19 19
5 5 5 6 6 6 6 5 5 5 5 5 5 5 4 4 4 4 3 3 3 3 3 2 3 3 3 2 1 2 4 4 4 4 4 5 4 3 4 4 5 6 5 5 5 4 4 5 6 6 7 10 11 11 11 10 11 13 15 18 21 23 24 24 24 24 23 23 23 23 22 22 21 20 20 19 18 18 18 18 18 18 19 19 19 19
6 6 6 6 6 6 6 5 5 5 4 4 4 5 5 5 4 4 4 3 3 3 3 3 3 3 4 4 2 2 3 3 3 4 4 5 4 3 4 4 4 5 5 5 5 4 3 4 4 6 7 10 12 13 13 13 12 12 13 15 17 19 21 22 23 23 23 23 22 22 21 20 19 18 18 17 17 17 17 17 18 19 19 20 19 19
7 7 6 6 6 6 6 6 5 5 5 4 5 5 6 5 4 4 4 4 3 3 3 4 4 4 4 4 2 2 3 3 3 4 4 5 4 3 4 4 5 5 5 5 4 3 3 3 3 4 7 9 12 14 16 16 15 15 14 14 15 16 18 20 21 21 21 21 21 20 19 19 18 17 16 16 16 16 16 17 18 18 19 19 19 19
9 8 7 6 6 6 6 5 6 6 6 5 5 5 5 5 5 5 5 4 4 4 3 4 5 5 4 4 2 1 3 3 3 3 3 4 4 3 3 4 4 5 6 5 4 3 2 2 2 2 4 8 12 14 17 17 17 17 17 16 16 17 18 19 19 20 20 20 20 19 19 18 18 17 17 16 16 16 16 16 17 18 19 19 19 19
9 9 9 9 8 8 7 7 7 8 7 6 6 5 4 4 5 5 5 5 4 5 5 5 5 4 4 3 1 1 3 3 3 3 2 3 4 4 2 3 4 5 5 4 3 3 2 2 1 2 4 7 11 14 16 18 18 19 19 18 18 18 18 19 19 20 20 20 20 20 20 19 19 19 18 18 18 17 17 17 17 17 18 18 18 18
10 9 9 9 9 9 8 8 8 8 7 7 6 6 4 5 5 6 6 5 5 5 5 5 4 3 3 1 1 1 3 3 3 2 2 4 4 3 2 2 3 4 5 4 3 2 2 2 1 2 3 7 10 13 16 17 18 19 19 20 19 19 19 19 19 20 20 20 20 20 21 21 21 21 20 20 20 19 18 18 17 17 17 18 18 17
10 10 10 9 9 8 8 8 7 7 7 6 6 6 6 6 7 7 7 6 6 6 5 4 4 4 3 3 2 3 3 3 3 3 3 4 4 3 1 2 3 4 5 4 3 2 2 2 2 1 2 5 9 12 15 16 17 18 19 20 20 20 20 20 20 20 20 20 20 20 21 21 21 22 22 21 21 20 20 19 18 17 17 17 17 18
9 9 9 9 9 9 9 9 9 8 8 7 6 6 7 7 7 7 7 7 6 5 4 4 5 5 4 4 4 3 3 4 4 4 3 3 3 2 1 2 3 4 4 3 2 2 2 2 2 2 2 4 7 12 15 16 17 17 18 19 19 19 19 19 19 19 20 20 20 20 21 21 22 22 22 22 22 21 20 19 18 17 17 17 18 18
13 13 13 13 14 15 16 15 15 14 14 11 9 7 7 7 7 7 7 7 6 5 5 6 6 6 4 4 4 4 3 4 4 4 3 3 2 2 1 2 3 3 3 2 2 1 2 2 2 2 2 3 5 9 14 16 17 17 17 18 18 19 19 19 19 19 19 20 20 20 21 21 21 22 22 22 22 21 21 20 19 18 17 17 18 18
19 20 21 21 21 21 20 20 20 20 20 18 15 12 9 7 7 8 9 6 5 5 6 7 7 6 5 5 4 4 3 4 4 4 4 3 3 2 1 2 2 3 3 2 1 1 2 2 3 3 3 2 3 5 12 16 18 19 19 19 19 19 19 19 19 20 20 20 21 21 21 21 21 22 22 22 22 21 21 20 19 18 17 16 16 16
20 21 22 22 22 22 22 22 22 22 22 21 21 19 13 9 8 9 9 6 5 6 8 8 7 6 5 5 5 4 3 4 4 4 4 3 3 3 1 2 2 3 2 1 0 1 2 2 2 2 2 2 2 3 7 12 16 19 21 21 21 21 21 21 21 21 21 22 22 22 22 22 22 22 22 21 21 21 21 20 19 18 16 14 12 11
17 18 19 20 21 21 21 21 21 21 22 22 21 19 15 10 9 9 8 6 6 7 9 8 7 6 6 6 5 4 4 4 4 5 4 3 3 3 1 2 2 3 2 0 0 1 2 2 2 2 2 2 2 2 3 6 10 15 19 22 23 23 23 23 23 23 23 23 23 23 23 22 22 22 22 22 21 21 21 21 19 17 13 12 10 9
12 13 14 15 16 17 17 17 17 18 19 20 20 18 15 11 10 9 8 7 7 8 9 8 7 7 6 5 5 4 4 4 5 5 5 4 3 2 2 2 3 3 2 1 0 1 2 2 2 2 2 2 2 2 1 2 3 6 10 16 19 21 22 23 23 23 23 23 23 23 23 23 23 22 22 22 22 22 22 21 19 15 10 10 9 9
11 11 11 11 11 11 11 11 12 12 14 15 16 15 13 11 10 9 8 8 8 9 9 7 7 7 7 5 5 4 3 3 5 6 6 4 3 2 2 3 3 3 3 2 2 1 2 1 2 2 2 2 2 2 2 2 2 2 2 6 9 14 18 20 20 20 21 22 22 23 23 22 22 22 22 22 22 22 22 22 19 15 10 10 9 9
10 10 10 10 9 9 8 8 8 9 9 10 10 10 10 10 9 9 8 8 8 8 8 8 8 8 8 7 6 5 4 2 5 7 7 4 3 2 3 3 3 3 3 3 3 2 1 1 1 1 2 2 2 2 2 2 2 2 1 2 3 6 12 14 16 16 16 19 20 22 22 22 22 22 21 21 22 22 23 23 20 16 10 10 10 10
10 10 9 9 9 8 8 8 8 8 8 7 7 8 8 9 9 9 9 8 8 8 8 8 8 8 8 8 8 7 5 2 4 7 8 5 3 2 3 3 3 3 3 3 3 2 1 0 1 1 1 1 2 2 3 3 3 3 2 2 2 3 5 8 10 11 11 13 16 18 20 21 21 21 21 22 22 22 23 23 22 18 12 10 9 9
11 11 10 9 9 8 8 8 8 8 8 8 7 7 7 8 8 9 9 8 8 7 7 7 7 8 8 8 8 7 6 3 5 8 9 6 4 2 3 4 4 3 3 3 3 2 0 1 1 1 0 1 1 2 2 3 3 3 3 3 3 2 3 4 5 6 7 8 9 11 15 16 18 20 20 21 21 22 23 23 23 21 17 12 9 8
10 10 10 9 9 9 9 9 9 9 8 8 8 8 7 7 8 8 8 8 8 7 7 7 7 7 8 7 7 7 6 4 5 8 9 7 4 3 3 4 4 3 3 3 3 3 2 1 2 2 1 1 1 1 2 2 2 2 2 3 3 3 3 3 3 4 4 5 6 6 8 9 11 14 16 18 19 20 22 23 24 23 21 17 13 9
9 10 10 9 9 9 9 9 9 9 9 8 8 7 7 8 8 8 8 8 8 7 7 7 7 7 8 8 8 8 7 4 6 8 9 8 6 4 3 4 4 4 4 4 4 3 3 2 3 3 2 2 2 2 2 1 1 1 2 3 3 3 3 4 4 4 4 4 5 5 5 6 7 9 11 14 17 19 21 23 24 25 24 21 17 13
10 10 10 9 9 9 9 9 9 9 8 8 7 7 7 8 8 8 7 8 8 8 7 8 8 8 9 8 9 8 7 4 6 8 10 8 6 5 4 4 4 5 5 5 4 4 4 3 3 3 3 3 2 2 2 2 2 2 3 3 3 3 4 4 4 5 5 5 5 5 5 6 7 8 8 12 14 16 18 21 23 24 25 23 21 18
10 10 10 9 9 9 9 9 9 9 8 8 7 7 7 8 8 8 8 8 9 9 8 7 7 8 10 10 10 10 9 6 6 9 11 9 7 6 5 4 5 6 6 5 4 4 4 4 4 4 4 4 3 3 3 3 3 4 4 3 3 3 4 4 5 5 5 6 6 6 6 7 7 7 7 8 9 10 12 13 16 19 22 22 22 21
10 10 10 10 9 9 9 9 9 9 9 8 8 8 7 8 8 8 8 8 9 9 9 8 7 7 8 10 10 10 10 8 8 9 11 9 8 7 6 5 5 6 6 5 5 5 5 5 5 5 4 4 3 3 3 4 4 4 4 3 3 4 4 4 5 5 6 6 7 7 6 6 6 6 7 6 7 8 9 9 11 13 15 15 17 19
10 10 10 10 10 10 10 10 9 9 9 9 9 9 8 8 7 8 8 8 8 9 9 9 8 6 6 7 7 7 7 6 6 7 9 8 8 7 6 6 5 5 5 5 5 5 6 6 5 5 5 4 4 3 3 4 4 5 5 3 3 4 5 5 5 5 5 6 6 6 6 6 6 7 7 7 8 8 9 8 9 10 11 10 10 12
10 10 10 10 10 10 10 10 9 9 9 9 8 8 8 7 7 7 7 7 8 8 7 7 7 6 6 6 6 6 6 5 5 6 7 9 9 9 7 6 5 5 5 6 6 6 6 6 6 6 5 5 4 4 4 5 6 6 7 5 5 4 5 5 6 5 5 5 6 6 6 6 6 7 7 7 8 8 8 8 9 9 9 9 9 9
9 8 8 6 6 5 6 6 7 7 7 8 8 8 7 7 7 7 7 7 7 7 6 6 6 6 7 6 6 5 5 5 5 6 6 8 9 9 8 7 6 5 5 6 6 7 7 7 6 6 6 5 4 4 4 5 6 7 7 6 5 4 4 5 6 6 5 5 5 6 7 6 6 6 7 7 6 6 7 8 9 10 9 8 8 8
7 7 6 4 4 3 4 4 4 4 5 6 6 7 7 7 7 7 7 7 7 7 6 6 6 6 6 6 6 6 5 5 5 5 5 6 7 9 9 9 7 6 6 6 6 7 7 7 7 6 6 5 4 4 4 4 5 6 6 6 6 4 3 4 5 6 6 6 6 6 6 5 5 5 5 5 5 5 6 8 9 11 10 8 8 8
9 8 7 7 6 6 6 6 5 5 5 5 6 6 6 7 8 8 8 8 8 8 7 6 6 6 6 7 6 6 5 5 5 5 5 6 6 7 8 9 8 7 7 7 6 6 6 7 7 6 5 4 4 5 5 4 5 5 5 6 6 6 5 4 5 6 6 7 6 6 6 5 4 4 4 4 4 5 6 7 8 8 9 7 7 7
9 9 9 8 8 8 8 8 7 7 7 7 7 6 6 6 7 8 8 8 8 8 7 6 5 5 6 6 6 5 5 5 4 4 4 5 6 7 7 7 7 7 7 7 6 6 6 6 6 6 4 4 5 6 6 5 5 5 6 6 6 6 6 3 5 7 7 7 7 6 6 5 4 4 4 5 5 5 6 7 8 8 8 7 7 7
9 9 9 8 9 9 10 10 9 9 9 9 9 8 7 6 6 6 7 8 8 8 8 7 6 6 7 6 5 5 5 5 5 4 4 4 5 6 6 6 6 6 6 6 6 6 6 6 5 5 4 5 6 6 6 6 5 5 6 6 6 6 5 4 5 6 7 7 7 7 7 6 5 5 5 5 5 5 5 6 7 8 9 8 7 7
9 9 9 8 9 9 9 9 9 9 9 10 9 9 8 7 7 6 7 7 7 8 8 8 7 8 8 7 6 5 6 7 6 5 5 5 5 5 5 5 5 5 5 5 5 5 5 5 4 4 5 5 6 6 6 6 6 6 6 6 6 6 6 5 5 5 6 6 6 7 7 7 6 6 6 6 5 5 4 5 6 7 8 8 7 6
9 9 9 8 8 9 9 8 9 9 9 9 9 9 9 9 9 8 7 7 7 7 8 8 8 8 8 7 7 7 7 7 6 6 5 6 6 6 5 5 4 4 4 4 4 4 5 4 4 4 5 6 6 6 6 7 7 6 6 6 6 6 7 5 5 5 5 6 6 7 7 7 7 7 6 5 5 5 5 4 4 4 5 5 5 5
9 9 9 9 9 9 9 8 8 9 9 9 9 9 9 10 11 11 8 7 6 6 7 8 9 8 8 8 7 8 8 8 7 6 5 6 6 6 5 5 4 4 3 3 3 3 3 4 4 5 5 6 6 6 6 6 7 6 6 6 6 6 6 6 5 5 5 6 6 7 7 7 7 7 6 6 6 6 5 5 4 3 2 2 2 3
10 10 9 9 9 9 9 8 8 9 9 9 9 9 9 9 9 9 9 7 7 7 8 9 8 8 8 7 7 8 8 8 7 6 6 5 5 5 6 6 5 5 4 3 3 3 3 3 5 6 7 8 7 7 6 6 6 6 6 6 6 6 6 6 5 6 6 6 6 7 7 7 6 6 6 6 7 7 6 6 5 4 2 1 1 1
10 10 10 10 10 9 9 9 9 9 9 9 9 9 9 9 9 9 9 8 8 8 8 9 8 8 7 7 7 8 9 8 7 7 6 5 5 6 6 6 6 6 5 4 4 4 4 4 4 6 8 10 11 10 7 6 6 6 6 6 6 6 6 6 5 5 6 6 6 6 7 7 6 6 6 6 6 6 6 6 6 6 4 2 1 1
Wind_Direction
314 319 322 325 321 312 299 287 280 277 277 276 274 271 267 262 258 254 248 245 243 241 240 243 252 262 271 269 264 258 252 245 238 234 231 232 233 233 234 234 235 236 236 235 235 233 232 231 229 227 225 224 222 220 219 218 217 218 219 220 221 222 222 219 215 210 207 204 200 196 192 189 187 186 186 188 190 191 191 190 188 187 186 187 188 189
321 319 318 327 324 317 307 301 288 275 276 274 271 266 259 255 255 255 251 247 245 243 242 243 250 260 269 278 284 285 280 269 259 250 242 238 235 233 233 232 231 232 233 233 233 233 231 230 229 228 227 226 225 223 222 221 220 220 221 223 226 227 226 221 215 210 207 205 202 198 194 190 187 186 186 187 188 189 189 188 187 186 186 186 187 188
326 321 321 329 327 321 312 313 308 294 283 282 279 277 271 263 257 254 253 252 250 248 246 245 249 256 261 269 281 288 288 289 285 277 266 255 246 240 235 232 230 229 229 229 229 229 228 227 226 225 226 226 227 226 225 224 223 223 224 226 229 230 228 222 216 211 207 205 203 200 196 192 189 187 186 187 188 188 188 187 186 185 185 186 187 188
318 315 319 326 323 317 310 315 317 315 303 292 287 283 278 271 264 259 257 258 257 254 248 244 244 247 252 258 265 272 279 284 288 290 291 284 273 261 250 240 234 230 228 226 226 225 224 224 223 222 223 225 226 227 227 226 226 225 226 228 229 230 227 222 216 211 207 205 203 200 197 193 190 188 187 187 187 187 187 186 185 185 185 186 186 187
308 310 317 320 314 309 309 315 317 317 312 301 291 284 278 271 267 265 264 262 259 256 251 244 239 237 241 245 252 258 263 271 278 287 296 298 297 291 282 264 251 241 233 230 227 225 224 223 222 221 222 223 225 227 228 229 228 228 228 228 229 228 226 221 216 210 205 203 202 200 197 194 191 189 187 187 187 187 186 185 185 184 185 185 186 187
305 305 310 307 301 300 304 309 311 311 308 301 293 285 278 272 270 268 266 262 260 257 255 248 240 236 236 239 245 250 254 260 267 275 285 293 299 302 300 289 276 263 250 241 235 231 229 227 225 224 223 223 225 226 229 230 230 230 229 229 229 228 226 221 215 208 202 200 199 198 196 194 191 189 188 187 187 187 186 185 184 184 184 185 186 187
303 301 296 289 287 288 292 293 299 302 303 301 299 292 283 276 272 270 268 267 265 264 264 261 253 245 242 242 244 247 250 254 259 264 272 280 288 293 295 293 289 281 270 259 250 243 237 233 230 228 226 226 226 227 228 230 231 231 231 230 229 229 227 222 214 206 199 196 194 194 193 192 190 189 187 187 187 187 187 186 185 184 184 185 186 187
302 300 293 289 287 285 283 279 284 292 300 301 302 300 296 289 278 273 273 272 271 272 273 272 265 256 248 245 244 244 246 250 253 256 262 268 273 278 283 285 286 284 281 274 265 256 248 241 236 233 230 228 227 227 228 229 230 230 231 230 229 229 227 222 213 204 196 191 190 189 189 188 188 187 186 187 188 188 187 186 185 184 184 185 186 188
298 298 296 292 291 291 290 284 279 278 294 296 297 298 300 299 295 287 278 272 270 268 271 273 271 264 254 246 244 244 246 247 247 248 251 253 257 262 268 271 276 279 282 281 276 269 261 251 243 237 233 229 227 226 226 226 227 228 228 228 228 227 226 220 212 202 193 187 185 184 185 185 185 184 184 186 187 188 188 187 186 185 185 186 187 188
295 295 296 293 290 289 290 290 292 294 281 280 282 287 292 294 294 292 284 272 262 253 253 260 265 266 263 250 242 242 248 250 249 248 246 246 247 250 253 257 263 270 276 279 281 281 277 265 254 244 236 231 227 224 223 223 223 224 225 226 226 226 224 217 208 199 190 184 181 181 181 182 182 182 182 184 185 187 187 187 186 185 185 187 188 189
295 295 295 293 292 288 281 284 290 295 269 268 269 268 265 271 276 280 280 275 265 247 232 240 250 257 263 255 242 236 243 250 252 251 248 246 246 247 248 250 253 259 265 271 277 282 284 279 269 257 244 234 227 222 220 220 220 221 223 224 225 224 222 213 203 194 186 181 179 178 178 179 179 180 180 182 184 185 186 186 185 185 186 187 189 190
295 295 294 294 294 291 284 279 270 255 246 259 265 264 253 242 245 256 266 272 271 263 245 238 237 242 251 255 249 239 237 246 251 253 252 249 247 246 246 247 249 252 256 262 267 272 278 281 278 270 257 242 230 222 216 215 214 214 217 219 219 218 214 204 195 188 182 178 175 174 174 175 176 177 179 180 182 183 184 184 184 184 185 187 189 191
290 291 291 291 290 289 288 284 274 258 247 249 257 261 261 240 230 237 254 264 269 271 272 263 250 241 238 244 248 248 244 248 250 253 254 251 248 245 246 246 246 246 247 251 254 258 263 269 273 273 268 254 236 221 209 203 198 196 197 200 202 202 198 191 184 179 175 172 170 169 170 171 173 175 176 178 180 181 182 183 183 184 184 187 189 192
289 290 288 288 288 288 289 289 287 283 276 264 259 261 268 262 249 242 253 262 264 268 278 277 272 262 244 234 234 239 245 251 253 254 252 250 246 244 246 248 247 244 240 242 242 242 242 246 253 261 266 260 243 224 206 193 181 173 171 171 173 174 177 174 171 170 168 165 164 164 165 168 170 172 173 175 177 179 181 182 183 184 185 188 191 195
288 290 288 287 288 290 291 292 290 288 286 282 278 274 274 270 260 252 254 262 264 266 270 271 271 268 254 229 217 217 228 239 248 249 250 247 242 238 239 248 250 247 240 239 238 237 230 230 234 239 242 246 243 234 218 193 173 163 162 159 159 160 163 162 162 161 160 159 159 160 162 165 167 169 171 173 175 177 180 182 183 185 187 191 194 197
284 284 284 287 288 288 288 290 290 290 290 288 283 278 274 268 261 254 253 261 266 269 265 270 272 270 257 218 192 192 210 227 237 244 248 247 238 225 219 237 247 248 243 240 238 235 228 226 226 226 225 223 221 220 217 207 182 169 164 161 160 160 161 160 160 159 158 158 159 160 162 163 165 167 169 172 174 177 179 181 184 186 189 193 197 200
275 276 279 282 283 283 284 285 286 287 291 289 285 280 275 271 266 261 257 260 262 262 255 260 269 272 270 214 174 183 202 218 231 241 246 248 237 214 199 221 236 244 245 244 241 237 229 226 223 221 219 212 207 204 204 201 189 178 171 167 165 164 164 163 162 162 161 161 161 162 163 164 166 168 170 172 175 177 179 182 184 188 191 195 198 200
271 271 273 275 277 279 283 282 281 282 285 286 284 282 276 271 268 264 261 259 256 253 252 251 253 261 275 259 203 174 193 212 228 242 247 249 237 208 191 211 228 238 244 245 245 242 236 228 221 217 215 203 197 194 192 190 187 183 178 173 169 167 166 165 164 164 164 164 164 164 164 165 167 169 171 174 176 179 181 184 187 190 193 197 199 200
274 270 266 268 272 277 279 278 279 280 281 282 284 284 279 274 269 264 258 254 250 249 250 252 252 255 264 268 246 161 182 207 226 242 249 252 242 208 182 206 223 234 241 242 243 245 247 242 230 219 210 200 194 190 185 183 182 181 179 175 171 168 166 165 164 164 164 165 164 164 164 165 166 168 171 174 177 180 183 186 189 191 194 196 197 198
274 272 269 272 275 275 272 270 271 273 276 278 280 281 281 279 274 267 259 254 249 247 247 251 253 257 261 270 259 162 170 198 222 240 251 258 251 223 181 203 220 230 238 237 236 236 250 263 254 229 208 200 194 189 183 180 178 176 175 172 169 167 165 163 163 163 163 163 163 163 163 164 165 168 171 174 178 181 184 187 190 192 194 195 197 197
273 270 267 271 273 273 270 269 269 271 273 278 280 279 279 279 275 268 262 257 252 249 247 248 252 255 257 260 249 163 168 194 215 234 253 260 254 235 187 201 218 230 237 237 232 226 228 253 271 259 228 207 198 191 185 180 177 175 173 171 169 167 165 163 163 163 163 163 163 164 164 166 168 170 173 176 180 182 185 188 190 192 193 194 196 197
270 270 270 270 269 270 272 276 276 275 275 276 275 274 276 276 273 269 263 255 250 248 246 248 251 256 262 271 269 170 185 202 214 228 253 261 256 244 189 197 216 231 238 237 228 214 207 222 254 267 251 218 204 195 189 183 179 176 174 173 171 170 168 166 165 165 165 166 166 167 168 170 173 175 178 181 183 185 188 190 191 192 193 194 195 197
263 267 272 270 269 269 272 276 277 276 274 272 270 271 275 275 274 271 267 259 252 249 248 251 252 255 253 264 261 228 215 217 219 226 244 257 259 250 191 196 216 231 239 234 224 208 199 204 227 258 262 222 208 199 193 187 183 180 177 176 175 174 172 171 170 170 170 170 171 172 174 176 178 181 183 185 187 189 191 192 193 194 194 194 195 197
258 262 265 266 267 268 270 271 273 275 275 273 273 273 275 275 276 276 276 269 263 258 256 257 256 252 240 225 222 223 218 216 218 224 237 253 258 253 204 199 218 233 241 233 220 202 198 203 210 238 276 231 212 202 196 191 187 184 181 180 179 178 177 176 175 174 174 175 176 177 179 181 183 185 187 188 190 191 192 194 195 196 196 196 197 198
261 261 261 263 265 267 270 274 277 280 282 282 281 279 277 278 278 278 276 270 265 260 256 256 256 253 245 234 229 223 208 205 208 217 230 250 258 256 222 206 218 231 241 230 212 194 198 205 207 217 255 239 216 204 198 194 190 187 185 184 183 182 182 181 180 179 179 180 181 182 183 185 187 188 190 191 192 193 194 195 196 197 197 197 199 200
264 265 265 266 266 267 268 271 273 276 278 279 280 279 279 280 279 274 268 262 256 251 249 251 252 251 247 243 237 225 197 196 203 213 222 243 253 251 230 214 221 231 241 225 198 185 207 212 209 210 219 234 221 209 201 197 194 191 189 188 187 187 187 186 185 185 184 184 185 185 187 188 189 190 191 192 193 194 194 195 196 198 198 199 201 202
262 264 266 266 266 265 265 265 266 267 269 269 269 270 272 275 273 267 261 255 248 243 246 249 251 252 249 247 243 230 194 191 199 209 214 235 249 248 218 209 219 229 235 228 201 197 217 220 214 209 209 222 239 225 207 202 198 195 193 192 192 191 190 190 190 189 188 188 188 188 189 189 190 191 192 193 194 194 195 195 196 197 198 199 201 203
259 260 262 263 263 263 262 262 262 261 262 262 263 263 264 264 262 260 256 253 247 244 247 248 250 251 250 249 247 236 203 197 197 197 197 221 241 244 199 197 213 222 218 220 315 278 246 237 225 212 207 205 226 234 222 211 204 200 197 196 195 194 193 193 192 192 191 191 190 190 190 191 191 192 193 193 194 195 195 195 196 196 197 199 200 203
259 259 258 259 259 259 259 259 259 258 257 257 257 257 255 253 253 255 257 255 250 247 247 246 246 248 252 255 255 245 221 207 192 180 177 208 232 236 161 191 208 212 188 148 16 315 273 255 238 221 212 202 206 228 248 229 213 205 202 199 198 196 195 194 194 193 192 192 192 191 191 192 192 193 193 194 195 195 196 196 196 196 196 199 201 202
266 264 261 259 257 256 255 254 254 254 253 252 252 251 248 246 248 252 258 255 251 248 249 247 245 245 249 255 257 252 237 209 180 169 173 202 222 222 160 194 204 200 172 159 186 259 252 232 221 216 214 204 203 210 240 261 240 219 208 202 200 199 197 195 194 193 193 192 192 192 192 193 193 194 195 195 196 196 196 196 196 195 196 199 202 202
276 275 272 268 264 260 257 254 253 251 250 249 248 247 244 243 244 247 251 249 249 249 250 247 243 241 241 245 249 250 244 198 170 166 176 201 216 209 170 199 203 194 180 180 195 224 238 206 190 194 204 204 205 209 215 237 255 256 237 210 204 201 198 196 195 194 194 194 194 193 194 194 195 196 196 197 197 197 197 197 196 196 197 200 202 203
278 277 275 274 272 269 265 262 258 255 252 249 246 245 243 242 242 242 243 244 246 249 251 248 243 239 237 238 242 247 252 200 169 169 178 198 210 203 181 202 201 194 189 198 210 224 244 197 157 161 194 203 204 207 210 218 227 238 253 239 220 205 198 195 195 195 196 196 196 196 197 197 197 198 199 199 199 199 198 198 197 197 197 200 203 204
277 276 275 274 274 271 268 266 263 260 256 252 249 246 246 245 243 242 241 241 243 246 249 246 243 239 237 238 241 245 252 223 175 172 180 191 200 196 187 201 200 192 187 206 220 236 263 135 112 127 203 212 210 207 209 214 219 220 224 229 235 221 202 196 195 196 197 198 199 200 200 199 200 200 201 201 201 201 201 200 199 198 198 199 202 203
273 273 273 273 272 270 266 264 261 260 257 253 250 248 248 248 248 246 244 242 242 243 246 245 242 240 238 240 241 242 242 221 177 173 180 191 197 191 185 201 201 193 183 200 212 220 247 115 117 135 185 221 222 219 214 216 218 219 219 221 223 222 219 207 202 199 197 197 200 202 202 201 202 202 202 203 203 203 203 202 201 200 199 199 200 199
269 270 270 270 269 269 267 264 261 258 255 253 250 248 247 248 249 249 248 245 244 244 246 245 244 242 240 240 242 241 233 209 180 176 181 191 194 189 187 203 203 196 189 198 202 205 208 180 168 166 158 169 204 223 219 218 220 226 228 226 224 220 219 217 213 208 204 201 202 203 202 201 202 203 203 204 204 204 204 203 202 201 200 200 199 198
265 266 266 266 267 267 267 265 263 260 257 252 249 245 243 245 247 249 250 250 249 249 249 248 247 245 243 243 245 245 240 211 185 181 185 189 191 192 195 202 200 197 199 201 204 206 209 200 191 188 186 184 189 197 202 202 214 230 238 233 231 227 224 221 220 217 214 211 208 206 202 201 201 203 203 203 204 204 204 204 202 201 200 200 200 199
262 262 263 264 264 265 265 265 264 263 260 256 251 245 241 241 242 244 246 249 251 253 254 253 252 249 246 247 248 248 248 216 186 184 189 189 191 196 203 200 195 196 204 204 205 206 211 210 205 204 210 209 199 180 169 177 192 212 227 225 226 227 228 225 222 220 219 218 214 209 204 204 204 204 203 203 203 204 205 204 203 201 200 200 200 200
259 260 261 261 262 262 263 263 263 263 263 261 257 251 245 241 240 240 242 245 247 250 253 253 255 253 251 251 251 250 248 230 202 192 191 189 191 197 206 200 195 197 206 205 203 201 208 212 212 211 216 217 205 179 156 166 184 199 209 211 217 222 226 223 221 220 221 220 218 214 210 208 207 205 203 200 199 200 203 205 204 202 200 200 200 199
252 254 257 257 258 259 259 259 260 261 262 261 259 256 252 247 243 241 240 242 243 245 246 248 251 254 254 253 252 250 247 235 214 199 192 189 190 195 202 202 200 199 203 204 203 204 208 214 215 215 213 215 205 184 158 168 180 186 182 190 208 221 224 220 218 219 220 218 217 215 211 207 203 201 200 196 195 196 199 202 203 202 200 199 200 200
245 248 250 251 251 252 253 254 254 255 256 258 258 256 253 249 245 242 241 242 243 244 245 246 248 252 253 254 251 248 245 236 218 202 194 190 191 194 200 203 201 197 193 199 204 208 210 217 221 222 217 215 206 190 167 176 180 176 164 175 196 209 210 209 212 215 217 216 214 212 207 203 200 199 199 196 195 196 197 199 201 202 200 198 198 198
243 244 246 248 250 252 253 254 254 254 254 256 256 254 250 247 245 243 242 242 242 242 242 243 246 249 249 248 245 242 240 235 223 210 203 196 195 196 201 204 202 196 189 197 204 209 211 216 221 223 222 221 214 201 181 180 179 177 175 186 193 195 189 197 203 210 213 216 215 212 206 202 201 201 200 199 198 198 196 196 198 200 201 201 199 197
248 247 248 251 255 260 266 269 270 270 269 266 262 257 253 248 246 244 244 244 243 241 238 238 242 246 248 245 239 233 229 227 222 216 213 204 200 199 203 205 204 198 192 197 204 209 211 215 218 221 220 219 218 211 194 180 178 183 190 194 188 176 169 193 199 202 207 213 214 213 209 205 202 201 200 200 200 198 195 195 197 198 200 202 204 203
258 257 257 258 259 262 269 276 281 283 280 274 269 264 259 252 246 243 242 244 245 243 239 235 236 241 247 246 240 231 222 215 213 214 217 212 206 205 207 209 207 202 197 200 205 209 210 213 217 220 218 215 216 216 210 183 177 185 197 196 188 179 180 190 190 192 201 207 209 210 209 207 203 200 199 201 200 197 195 198 200 202 202 202 203 206
265 266 266 265 264 263 263 263 264 264 265 267 267 267 266 259 253 248 244 243 244 243 240 234 233 237 244 246 243 236 223 212 207 209 215 216 214 212 214 214 213 209 205 206 207 207 206 212 216 218 214 212 216 219 216 197 187 188 197 198 199 201 204 182 172 178 195 202 205 208 209 207 203 199 199 201 202 202 201 202 203 204 204 203 204 206
263 264 265 265 265 265 265 265 265 265 265 264 264 264 267 267 263 257 251 247 244 241 238 232 230 234 240 241 240 236 226 213 204 203 211 216 218 218 220 220 218 216 214 215 214 209 205 211 212 211 205 209 215 219 219 209 198 192 194 199 205 213 219 178 163 171 186 193 197 201 205 203 199 196 197 200 202 203 204 205 205 205 204 203 206 208
257 258 259 259 260 261 262 263 265 266 266 264 263 262 263 265 267 265 259 253 247 242 236 229 227 231 238 237 237 235 233 221 208 196 197 206 212 215 219 221 222 221 220 222 222 220 216 214 209 202 198 208 215 219 219 214 206 199 194 196 202 209 211 182 168 171 180 186 191 195 196 197 198 198 200 200 201 203 205 206 206 206 205 204 207 208
251 252 252 253 254 255 257 259 260 260 260 260 260 260 260 259 259 260 260 256 251 246 239 231 227 229 235 234 233 233 237 232 219 200 189 197 201 205 210 215 219 222 224 225 228 229 230 224 213 202 198 206 214 218 217 214 211 205 197 192 195 202 208 193 178 171 176 182 186 187 184 191 198 204 204 201 201 202 204 207 208 208 206 205 205 203
248 248 248 248 249 251 252 253 254 255 256 257 258 258 257 254 253 252 253 253 252 249 243 234 229 228 231 232 231 232 237 239 229 209 190 193 194 196 197 200 208 215 223 227 232 237 241 242 233 220 210 209 212 214 214 213 213 209 201 192 192 199 207 195 179 169 173 180 181 179 178 188 196 202 201 200 202 204 203 202 205 208 205 203 201 197
247 247 246 247 247 247 248 248 250 252 254 256 258 258 256 254 251 250 248 247 247 248 246 237 232 229 229 230 230 231 234 238 234 221 200 192 189 187 188 190 193 199 207 216 225 235 246 253 251 244 233 222 219 217 215 212 211 210 204 196 194 197 202 193 180 171 174 178 178 177 180 189 196 199 197 200 204 206 202 198 197 197 193 204 204 197
244 244 245 245 245 245 245 245 245 247 250 253 256 257 258 255 252 249 246 242 241 242 245 241 237 234 232 231 230 229 230 233 233 229 216 197 184 180 184 185 187 190 196 203 209 217 229 242 247 244 239 232 227 223 219 214 209 207 205 202 198 197 197 192 181 174 175 176 176 176 182 190 195 198 200 205 207 207 203 199 195 190 174 183 213 207
239 240 241 242 242 242 242 241 240 242 244 247 251 254 256 256 254 252 249 243 240 239 242 243 243 241 239 236 232 228 227 228 230 229 225 202 184 178 183 181 182 184 191 197 202 206 211 222 231 234 231 226 224 222 221 214 207 204 206 205 201 196 196 192 181 174 174 176 176 176 181 188 194 199 202 207 208 208 205 201 197 189 172 168 174 186